Weather History for Monett, MO

Change the Weather History Date:

Wednesday, January 9, 2013

  Actual Average (KJLN) Record (KJLN)
Temperature  
Mean Temperature 46 °F 34 °F  
Max Temperature 51 °F 44 °F 67 °F (1963)
Min Temperature 42 °F 25 °F -3 °F (1977)
Degree Days  
Heating Degree Days 18 30  
Month to date heating degree days 270  
Since 1 July heating degree days 1887  
Cooling Degree Days 0 0  
Month to date cooling degree days 0  
Year to date cooling degree days 0  
Moisture  
Dew Point 41 °F    
Average Humidity 79    
Maximum Humidity 100    
Minimum Humidity 50    
Precipitation  
Precipitation 0.01 in 0.06 in 0.86 in (1984)
Month to date precipitation 0.63  
Year to date precipitation 0.63  
Sea Level Pressure  
Sea Level Pressure 30.29 in    
Wind  
Wind Speed 6 mph (ENE)    
Max Wind Speed 20 mph    
Max Gust Speed 31 mph    
Visibility 6 miles    
Events Fog    
T = Trace of Precipitation, MM = Missing Value Source: NWS Daily Summary

Daily Weather History Graph

Daily Weather History Graph

Search for Another Location

Airport:

Trip Planner

Search our weather history database for the weather conditions in past years. The results will help you decide how hot, cold, wet, or windy it might be!

Date:

Astronomy

Jan. 09, 2013 Rise Set
Actual Time 7:29 AM CST 5:17 PM CST
Civil Twilight 7:00 AM CST 5:46 PM CST
Nautical Twilight 6:28 AM CST 6:18 PM CST
Astronomical Twilight 5:57 AM CST 6:49 PM CST
Moon 5:09 AM CST (1/9) 3:20 PM CST (1/9)
Length of Visible Light 10h 45m
Length of Day
9h 48m
Waning Crescent, 6% of the Moon is Illuminated
Jan 9
Waning Crescent
Jan 11
New
Jan 18
First Quarter
Jan 26
Full
Feb 3
Last Quarter

Hourly Weather History & Observations

Time (CST) Temp. Windchill Dew Point Humidity Pressure Visibility Wind Dir Wind Speed Gust Speed Precip Events Conditions
12:15 AM 46.4 °F 45.2 °F 46.4 °F 100% 30.20 in 2.5 mi SE 3.5 mph - N/A   Overcast
12:35 AM 44.6 °F 42.2 °F 44.6 °F 100% 30.20 in 2.0 mi SSE 4.6 mph - N/A   Overcast
12:55 AM 46.4 °F 45.2 °F 46.4 °F 100% 30.20 in 2.5 mi SSE 3.5 mph - N/A   Overcast
1:35 AM 44.6 °F - 44.6 °F 100% 30.21 in 0.5 mi Calm Calm - N/A Fog Fog
1:55 AM 44.6 °F - 44.6 °F 100% 30.22 in 0.5 mi Calm Calm - N/A Fog Fog
2:15 AM 44.6 °F 42.2 °F 44.6 °F 100% 30.23 in 0.2 mi North 4.6 mph - N/A Fog Fog
2:35 AM 44.6 °F 42.2 °F 44.6 °F 100% 30.24 in 0.5 mi North 4.6 mph - N/A Fog Fog
2:55 AM 44.6 °F 42.2 °F 44.6 °F 100% 30.25 in 0.5 mi NNW 4.6 mph - N/A Fog Fog
3:15 AM 44.6 °F 43.1 °F 44.6 °F 100% 30.25 in 0.2 mi North 3.5 mph - N/A Fog Fog
3:35 AM 44.6 °F - 44.6 °F 100% 30.25 in 0.2 mi Calm Calm - N/A Fog Fog
3:55 AM 44.6 °F 42.2 °F 44.6 °F 100% 30.24 in 0.2 mi North 4.6 mph - 0.01 in Fog Fog
4:15 AM 44.6 °F 42.2 °F 44.6 °F 100% 30.23 in 0.2 mi NNE 4.6 mph - N/A Fog Fog
4:35 AM 44.6 °F - 44.6 °F 100% 30.24 in 0.2 mi Calm Calm - N/A Fog Fog
4:55 AM 44.6 °F - 44.6 °F 100% 30.26 in 0.2 mi Calm Calm - N/A Fog Fog
5:15 AM 44.6 °F 42.2 °F 44.6 °F 100% 30.26 in 0.5 mi North 4.6 mph - N/A Fog Fog
5:35 AM 44.6 °F 42.2 °F 44.6 °F 100% 30.25 in 0.5 mi NNE 4.6 mph - N/A Fog Fog
5:55 AM 44.6 °F 43.1 °F 44.6 °F 100% 30.26 in 0.2 mi NE 3.5 mph - N/A Fog Fog
6:15 AM 44.6 °F 42.2 °F 44.6 °F 100% 30.27 in 0.5 mi NE 4.6 mph - N/A Fog Fog
6:35 AM 44.6 °F 40.7 °F 44.6 °F 100% 30.27 in 1.8 mi ENE 6.9 mph - N/A   Overcast
6:55 AM 42.8 °F 40.1 °F 42.8 °F 100% 30.28 in 2.5 mi NE 4.6 mph - N/A   Scattered Clouds
7:15 AM 42.8 °F 40.1 °F 42.8 °F 100% 30.30 in 1.0 mi East 4.6 mph - N/A   Overcast
7:35 AM 42.8 °F 40.1 °F 42.8 °F 100% 30.32 in 1.0 mi East 4.6 mph - N/A   Overcast
7:55 AM 42.8 °F 38.6 °F 42.8 °F 100% 30.32 in 0.2 mi ENE 6.9 mph - N/A Fog Fog
8:15 AM 42.8 °F 38.6 °F 42.8 °F 100% 30.33 in 0.5 mi NE 6.9 mph - N/A Fog Fog
8:35 AM 42.8 °F 38.0 °F 42.8 °F 100% 30.33 in 0.8 mi ENE 8.1 mph - N/A   Overcast
9:15 AM 42.8 °F 38.6 °F 42.8 °F 100% 30.34 in 3.0 mi ENE 6.9 mph - N/A   Scattered Clouds
9:35 AM 42.8 °F 39.3 °F 42.8 °F 100% 30.35 in 5.0 mi NE 5.8 mph - N/A   Clear
9:55 AM 44.6 °F 40.2 °F 42.8 °F 93% 30.36 in 7.0 mi NE 8.1 mph - N/A   Clear
10:15 AM 44.6 °F 39.7 °F 44.6 °F 100% 30.35 in 5.0 mi NE 9.2 mph - N/A   Clear
10:35 AM 44.6 °F 39.7 °F 42.8 °F 93% 30.35 in 7.0 mi ENE 9.2 mph - N/A   Clear
10:55 AM 46.4 °F 41.5 °F 42.8 °F 87% 30.35 in 10.0 mi ENE 10.4 mph - N/A   Clear
11:15 AM 48.2 °F - 42.8 °F 82% 30.34 in 10.0 mi ENE 8.1 mph - N/A   Clear
11:35 AM 50.0 °F - 42.8 °F 76% 30.33 in 10.0 mi ENE 9.2 mph - N/A   Clear
11:55 AM 50.0 °F - 42.8 °F 76% 30.33 in 10.0 mi ENE 11.5 mph - N/A   Clear
12:15 PM 51.8 °F - 41.0 °F 67% 30.32 in 10.0 mi ENE 9.2 mph - N/A   Clear
12:35 PM 51.8 °F - 41.0 °F 67% 30.32 in 10.0 mi ENE 9.2 mph - N/A   Clear
12:55 PM 51.8 °F - 41.0 °F 67% 30.32 in 10.0 mi ENE 11.5 mph - N/A   Clear
1:15 PM 51.8 °F - 37.4 °F 58% 30.31 in 10.0 mi ENE 11.5 mph - N/A   Clear
1:35 PM 51.8 °F - 39.2 °F 62% 30.30 in 10.0 mi East 8.1 mph - N/A   Clear
1:55 PM 51.8 °F - 39.2 °F 62% 30.30 in 10.0 mi ENE 9.2 mph - N/A   Clear
2:15 PM 51.8 °F - 39.2 °F 62% 30.30 in 10.0 mi East 10.4 mph - N/A   Clear
2:35 PM 51.8 °F - 39.2 °F 62% 30.30 in 10.0 mi East 8.1 mph - N/A   Clear
2:55 PM 51.8 °F - 39.2 °F 62% 30.31 in 10.0 mi East 8.1 mph - N/A   Clear
3:15 PM 51.8 °F - 39.2 °F 62% 30.31 in 10.0 mi ENE 8.1 mph - N/A   Clear
3:35 PM 51.8 °F - 39.2 °F 62% 30.31 in 10.0 mi ENE 9.2 mph - N/A   Clear
3:55 PM 51.8 °F - 39.2 °F 62% 30.31 in 10.0 mi ENE 8.1 mph - N/A   Clear
4:15 PM 51.8 °F - 41.0 °F 67% 30.31 in 10.0 mi NE 8.1 mph - N/A   Clear
4:35 PM 51.8 °F - 39.2 °F 62% 30.31 in 10.0 mi NE 10.4 mph - N/A   Clear
4:55 PM 51.8 °F - 37.4 °F 58% 30.30 in 10.0 mi ENE 9.2 mph - N/A   Clear
5:15 PM 50.0 °F - 37.4 °F 62% 30.31 in 10.0 mi ENE 9.2 mph - N/A   Clear
5:35 PM 50.0 °F - 37.4 °F 62% 30.30 in 10.0 mi NE 10.4 mph - N/A   Clear
5:55 PM 50.0 °F - 37.4 °F 62% 30.30 in 10.0 mi NE 8.1 mph - N/A   Clear
6:15 PM 50.0 °F - 37.4 °F 62% 30.30 in 10.0 mi ENE 9.2 mph - N/A   Clear
6:35 PM 50.0 °F - 37.4 °F 62% 30.30 in 10.0 mi ENE 10.4 mph - N/A   Clear
6:55 PM 48.2 °F - 37.4 °F 66% 30.30 in 10.0 mi ENE 10.4 mph - N/A   Clear
7:15 PM 48.2 °F - 37.4 °F 66% 30.31 in 10.0 mi ENE 9.2 mph - N/A   Clear
7:35 PM 48.2 °F - 37.4 °F 66% 30.31 in 10.0 mi ENE 11.5 mph - N/A   Clear
7:55 PM 48.2 °F - 37.4 °F 66% 30.31 in 10.0 mi ENE 11.5 mph - N/A   Scattered Clouds
8:15 PM 50.0 °F - 37.4 °F 62% 30.31 in 10.0 mi ENE 11.5 mph - N/A   Scattered Clouds
8:35 PM 50.0 °F - 37.4 °F 62% 30.30 in 10.0 mi ENE 12.7 mph 17.3 mph N/A   Clear
8:55 PM 50.0 °F - 37.4 °F 62% 30.30 in 10.0 mi ENE 15.0 mph 19.6 mph N/A   Scattered Clouds
9:15 PM 50.0 °F - 37.4 °F 62% 30.30 in 10.0 mi East 16.1 mph 21.9 mph N/A   Mostly Cloudy
9:35 PM 50.0 °F - 35.6 °F 58% 30.28 in 10.0 mi East 16.1 mph 21.9 mph N/A   Overcast
10:15 PM 48.2 °F - 35.6 °F 62% 30.27 in 10.0 mi East 10.4 mph 19.6 mph N/A   Mostly Cloudy
10:35 PM 48.2 °F - 35.6 °F 62% 30.27 in 10.0 mi East 12.7 mph 20.7 mph N/A   Overcast
10:55 PM 50.0 °F - 35.6 °F 58% 30.26 in 10.0 mi East 15.0 mph 20.7 mph N/A   Overcast
11:15 PM 50.0 °F - 35.6 °F 58% 30.25 in 10.0 mi East 19.6 mph 25.3 mph N/A   Overcast
11:35 PM 50.0 °F - 33.8 °F 54% 30.24 in 10.0 mi East 18.4 mph 26.5 mph N/A   Overcast
11:55 PM 50.0 °F - 32.0 °F 50% 30.23 in 10.0 mi East 16.1 mph 31.1 mph N/A   Overcast